ARABSAT-6A

Last updated on Jan. 22, 2020, 4:37 a.m. UTC

1 44186U 19021A   20021.54231597  .00000146  00000-0  00000-0 0  9998
2 44186   0.0726 314.7718 0004056 332.2952  59.0489  1.00265343  2744
UTC
Height (km)
Latitude
Longitude
Inclination
Orbital Period
UTC large
Height (km)
Speed (km/s)
/
Latitude / Longitude
Inclination (degrees)
Orbital Period (minutes)
Azimuth
Elevation
Range (km)
Doppler Factor
iOS Compass Heading
iOS Angle

Next 30 passes for location: Hong Kong

Rise time Rise Azimuth (degrees) Set time Set Azimuth (degrees) Duration Max altitude (degrees)

No matching passes for this satellites